Tabellarische Ansicht des 11.4.2013


Die einzelnen Werte des Tages

Uhrzeit Temperatur Luftdruck Luftfeuchte Wind Hi-Wind Taupunkt THW Index Wind Chill Heat Index Solar- strahlung Regen

00:00

7.1 C

1004.1 hpa

91 %

9.7 km/h aus 115

14.5 km/h aus S

5.7 C

5.3 C

5.3 C

7.2 C

0 W/m

0.00 mm

00:05

7.1 C

1004.1 hpa

91 %

11.3 km/h aus 115

17.7 km/h aus S

5.7 C

4.9 C

4.9 C

7.1 C

0 W/m

0.00 mm

00:10

6.9 C

1004.1 hpa

91 %

11.3 km/h aus 116

16.1 km/h aus S

5.5 C

4.8 C

4.7 C

6.9 C

0 W/m

0.00 mm

00:15

6.8 C

1004.1 hpa

91 %

11.3 km/h aus 117

16.1 km/h aus S

5.4 C

4.6 C

4.6 C

6.8 C

0 W/m

0.00 mm

00:20

6.6 C

1004.1 hpa

91 %

11.3 km/h aus 116

19.3 km/h aus S

5.2 C

4.4 C

4.3 C

6.6 C

0 W/m

0.00 mm

00:25

6.4 C

1004.1 hpa

91 %

9.7 km/h aus 117

14.5 km/h aus S

5.0 C

4.4 C

4.4 C

6.4 C

0 W/m

0.00 mm

00:30

6.3 C

1004.1 hpa

91 %

11.3 km/h aus 116

16.1 km/h aus S

5.0 C

4.1 C

4.1 C

6.4 C

0 W/m

0.00 mm

00:35

6.4 C

1004.1 hpa

91 %

9.7 km/h aus 116

16.1 km/h aus S

5.0 C

4.4 C

4.4 C

6.4 C

0 W/m

0.00 mm

00:40

6.4 C

1004.1 hpa

92 %

8.0 km/h aus 117

11.3 km/h aus S

5.2 C

4.9 C

4.8 C

6.5 C

0 W/m

0.00 mm

00:45

6.3 C

1004.0 hpa

91 %

6.4 km/h aus 117

11.3 km/h aus S

5.0 C

5.2 C

5.1 C

6.4 C

0 W/m

0.00 mm

00:50

6.1 C

1004.0 hpa

91 %

6.4 km/h aus 117

8.0 km/h aus S

4.8 C

4.9 C

4.9 C

6.1 C

0 W/m

0.00 mm

00:55

5.9 C

1004.0 hpa

91 %

6.4 km/h aus 116

8.0 km/h aus S

4.5 C

4.6 C

4.6 C

5.9 C

0 W/m

0.00 mm

01:00

5.6 C

1003.7 hpa

91 %

4.8 km/h aus 117

8.0 km/h aus S

4.3 C

4.8 C

4.8 C

5.6 C

0 W/m

0.00 mm

01:05

5.4 C

1003.7 hpa

91 %

4.8 km/h aus 117

6.4 km/h aus S

4.1 C

4.7 C

4.7 C

5.4 C

0 W/m

0.00 mm

01:10

5.3 C

1003.7 hpa

91 %

4.8 km/h aus 114

6.4 km/h aus S

4.0 C

4.6 C

4.6 C

5.3 C

0 W/m

0.00 mm

01:15

5.4 C

1003.7 hpa

92 %

3.2 km/h aus 116

4.8 km/h aus S

4.2 C

5.4 C

5.4 C

5.4 C

0 W/m

0.00 mm

01:20

5.5 C

1003.7 hpa

92 %

1.6 km/h aus 116

4.8 km/h aus S

4.3 C

5.5 C

5.5 C

5.5 C

0 W/m

0.00 mm

01:25

5.6 C

1003.7 hpa

92 %

3.2 km/h aus 117

6.4 km/h aus S

4.4 C

5.6 C

5.6 C

5.6 C

0 W/m

0.00 mm

01:30

5.6 C

1003.6 hpa

92 %

4.8 km/h aus 117

6.4 km/h aus S

4.4 C

4.8 C

4.8 C

5.6 C

0 W/m

0.00 mm

01:35

5.3 C

1003.6 hpa

92 %

3.2 km/h aus 117

6.4 km/h aus S

4.1 C

5.3 C

5.3 C

5.3 C

0 W/m

0.00 mm

01:40

5.3 C

1003.6 hpa

92 %

3.2 km/h aus 117

4.8 km/h aus S

4.1 C

5.3 C

5.3 C

5.3 C

0 W/m

0.00 mm

01:45

5.3 C

1003.3 hpa

92 %

0.0 km/h aus 117

3.2 km/h aus S

4.1 C

5.3 C

5.3 C

5.3 C

0 W/m

0.00 mm

01:50

5.3 C

1003.3 hpa

93 %

0.0 km/h aus 117

3.2 km/h aus S

4.3 C

5.3 C

5.3 C

5.3 C

0 W/m

0.00 mm

01:55

5.3 C

1003.3 hpa

93 %

1.6 km/h aus 117

3.2 km/h aus S

4.3 C

5.3 C

5.3 C

5.3 C

0 W/m

0.00 mm

02:00

5.3 C

1003.1 hpa

93 %

3.2 km/h aus 117

6.4 km/h aus S

4.2 C

5.3 C

5.3 C

5.3 C

0 W/m

0.00 mm

02:05

5.3 C

1003.1 hpa

93 %

4.8 km/h aus 116

8.0 km/h aus S

4.3 C

4.6 C

4.6 C

5.3 C

0 W/m

0.00 mm

02:10

5.4 C

1003.1 hpa

93 %

3.2 km/h aus 117

6.4 km/h aus S

4.3 C

5.4 C

5.4 C

5.4 C

0 W/m

0.00 mm

02:15

5.4 C

1003.0 hpa

93 %

4.8 km/h aus 117

8.0 km/h aus S

4.4 C

4.7 C

4.7 C

5.5 C

0 W/m

0.00 mm

02:20

5.5 C

1003.0 hpa

93 %

3.2 km/h aus 117

6.4 km/h aus S

4.5 C

5.6 C

5.5 C

5.6 C

0 W/m

0.00 mm

02:25

5.5 C

1003.0 hpa

93 %

4.8 km/h aus 117

8.0 km/h aus S

4.5 C

4.8 C

4.7 C

5.6 C

0 W/m

0.00 mm

02:30

5.5 C

1002.8 hpa

93 %

6.4 km/h aus 116

9.7 km/h aus S

4.5 C

4.2 C

4.2 C

5.6 C

0 W/m

0.00 mm

02:35

5.7 C

1002.8 hpa

93 %

8.0 km/h aus 116

11.3 km/h aus S

4.6 C

3.9 C

3.9 C

5.7 C

0 W/m

0.00 mm

02:40

5.8 C

1002.8 hpa

93 %

8.0 km/h aus 116

9.7 km/h aus S

4.8 C

4.2 C

4.1 C

5.9 C

0 W/m

0.00 mm

02:45

5.9 C

1002.5 hpa

93 %

4.8 km/h aus 117

9.7 km/h aus S

4.8 C

5.2 C

5.2 C

5.9 C

0 W/m

0.00 mm

02:50

5.9 C

1002.5 hpa

93 %

1.6 km/h aus 117

3.2 km/h aus S

4.8 C

5.9 C

5.9 C

5.9 C

0 W/m

0.00 mm

02:55

5.8 C

1002.5 hpa

93 %

1.6 km/h aus 116

4.8 km/h aus S

4.7 C

5.8 C

5.8 C

5.8 C

0 W/m

0.00 mm

03:00

5.7 C

1002.3 hpa

93 %

3.2 km/h aus 117

4.8 km/h aus S

4.7 C

5.8 C

5.7 C

5.8 C

0 W/m

0.00 mm

03:05

5.7 C

1002.3 hpa

93 %

1.6 km/h aus 116

4.8 km/h aus S

4.6 C

5.7 C

5.7 C

5.7 C

0 W/m

0.00 mm

03:10

5.6 C

1002.3 hpa

93 %

1.6 km/h aus 116

6.4 km/h aus S

4.6 C

5.7 C

5.6 C

5.7 C

0 W/m

0.00 mm

03:15

5.6 C

1002.0 hpa

93 %

3.2 km/h aus 115

8.0 km/h aus S

4.5 C

5.6 C

5.6 C

5.6 C

0 W/m

0.00 mm

03:20

5.6 C

1002.0 hpa

93 %

4.8 km/h aus 116

9.7 km/h aus S

4.5 C

4.8 C

4.8 C

5.6 C

0 W/m

0.00 mm

03:25

5.7 C

1002.0 hpa

93 %

6.4 km/h aus 116

11.3 km/h aus S

4.6 C

4.4 C

4.3 C

5.7 C

0 W/m

0.00 mm

03:30

5.8 C

1001.9 hpa

93 %

6.4 km/h aus 117

11.3 km/h aus S

4.8 C

4.6 C

4.6 C

5.9 C

0 W/m

0.00 mm

03:35

5.9 C

1001.9 hpa

93 %

6.4 km/h aus 116

11.3 km/h aus SSE

4.8 C

4.7 C

4.6 C

5.9 C

0 W/m

0.00 mm

03:40

5.9 C

1001.9 hpa

93 %

6.4 km/h aus 117

11.3 km/h aus SSE

4.9 C

4.7 C

4.7 C

6.0 C

0 W/m

0.00 mm

03:45

6.0 C

1001.6 hpa

93 %

6.4 km/h aus 117

12.9 km/h aus SE

5.0 C

4.8 C

4.8 C

6.1 C

0 W/m

0.00 mm

03:50

6.1 C

1001.6 hpa

93 %

6.4 km/h aus 117

11.3 km/h aus SE

5.0 C

4.9 C

4.8 C

6.1 C

0 W/m

0.00 mm

03:55

6.1 C

1001.6 hpa

93 %

6.4 km/h aus 117

9.7 km/h aus SE

5.0 C

4.9 C

4.8 C

6.1 C

0 W/m

0.00 mm

04:00

6.1 C

1001.4 hpa

93 %

6.4 km/h aus 117

11.3 km/h aus SE

5.0 C

4.9 C

4.8 C

6.1 C

0 W/m

0.00 mm

04:05

6.1 C

1001.4 hpa

93 %

8.0 km/h aus 117

14.5 km/h aus SE

5.1 C

4.5 C

4.4 C

6.2 C

0 W/m

0.00 mm

04:10

6.2 C

1001.4 hpa

93 %

8.0 km/h aus 117

14.5 km/h aus SE

5.1 C

4.6 C

4.5 C

6.2 C

0 W/m

0.00 mm

04:15

6.2 C

1001.1 hpa

92 %

6.4 km/h aus 116

12.9 km/h aus SE

5.0 C

5.1 C

5.0 C

6.3 C

0 W/m

0.00 mm

04:20

6.3 C

1001.1 hpa

92 %

8.0 km/h aus 117

16.1 km/h aus ESE

5.1 C

4.7 C

4.7 C

6.3 C

0 W/m

0.00 mm

04:25

6.3 C

1001.1 hpa

92 %

6.4 km/h aus 117

11.3 km/h aus ESE

5.1 C

5.1 C

5.1 C

6.3 C

0 W/m

0.00 mm

04:30

6.3 C

1000.9 hpa

92 %

6.4 km/h aus 117

11.3 km/h aus E

5.1 C

5.2 C

5.1 C

6.4 C

0 W/m

0.00 mm

04:35

6.3 C

1000.9 hpa

91 %

6.4 km/h aus 117

14.5 km/h aus ESE

5.0 C

5.2 C

5.1 C

6.4 C

0 W/m

0.00 mm

04:40

6.3 C

1000.9 hpa

91 %

4.8 km/h aus 117

9.7 km/h aus ESE

5.0 C

5.7 C

5.7 C

6.4 C

0 W/m

0.00 mm

04:45

6.3 C

1000.4 hpa

91 %

4.8 km/h aus 117

11.3 km/h aus ESE

5.0 C

5.7 C

5.7 C

6.4 C

0 W/m

0.00 mm

04:50

6.3 C

1000.4 hpa

91 %

6.4 km/h aus 117

16.1 km/h aus ESE

5.0 C

5.2 C

5.1 C

6.4 C

0 W/m

0.00 mm

04:55

6.3 C

1000.4 hpa

91 %

8.0 km/h aus 117

17.7 km/h aus ESE

5.0 C

4.8 C

4.7 C

6.4 C

0 W/m

0.00 mm

05:00

6.3 C

1000.2 hpa

91 %

9.7 km/h aus 117

16.1 km/h aus SE

5.0 C

4.4 C

4.3 C

6.4 C

0 W/m

0.00 mm

05:05

6.3 C

1000.2 hpa

91 %

8.0 km/h aus 117

16.1 km/h aus SE

5.0 C

4.8 C

4.7 C

6.4 C

0 W/m

0.00 mm

05:10

6.4 C

1000.2 hpa

91 %

9.7 km/h aus 116

24.1 km/h aus ESE

5.0 C

4.4 C

4.4 C

6.4 C

0 W/m

0.00 mm

05:15

6.3 C

999.9 hpa

90 %

9.7 km/h aus 117

19.3 km/h aus ESE

4.8 C

4.3 C

4.3 C

6.3 C

0 W/m

0.00 mm

05:20

6.3 C

999.9 hpa

91 %

9.7 km/h aus 117

17.7 km/h aus ESE

5.0 C

4.4 C

4.3 C

6.4 C

0 W/m

0.00 mm

05:25

6.3 C

999.9 hpa

90 %

9.7 km/h aus 117

17.7 km/h aus ESE

4.8 C

4.3 C

4.3 C

6.3 C

0 W/m

0.00 mm

05:30

6.3 C

999.8 hpa

91 %

8.0 km/h aus 117

17.7 km/h aus ESE

5.0 C

4.8 C

4.7 C

6.4 C

0 W/m

0.00 mm

05:35

6.3 C

999.8 hpa

91 %

11.3 km/h aus 117

19.3 km/h aus ESE

5.0 C

4.1 C

4.1 C

6.4 C

0 W/m

0.00 mm

05:40

6.3 C

999.8 hpa

91 %

8.0 km/h aus 117

19.3 km/h aus SE

5.0 C

4.8 C

4.7 C

6.4 C

0 W/m

0.00 mm

05:45

6.3 C

999.5 hpa

91 %

8.0 km/h aus 115

16.1 km/h aus ESE

5.0 C

4.8 C

4.7 C

6.4 C

0 W/m

0.25 mm

05:50

6.3 C

999.5 hpa

91 %

9.7 km/h aus 117

19.3 km/h aus E

5.0 C

4.4 C

4.3 C

6.4 C

0 W/m

0.00 mm

05:55

6.3 C

999.5 hpa

91 %

8.0 km/h aus 116

17.7 km/h aus ESE

4.9 C

4.7 C

4.7 C

6.3 C

0 W/m

0.25 mm

06:00

6.3 C

999.3 hpa

91 %

8.0 km/h aus 115

14.5 km/h aus E

4.9 C

4.7 C

4.7 C

6.3 C

0 W/m

0.00 mm

06:05

6.3 C

999.3 hpa

91 %

6.4 km/h aus 117

14.5 km/h aus E

4.9 C

5.1 C

5.1 C

6.3 C

0 W/m

0.00 mm

06:10

6.2 C

999.3 hpa

92 %

6.4 km/h aus 117

11.3 km/h aus E

5.0 C

5.1 C

5.0 C

6.3 C

0 W/m

0.25 mm

06:15

6.2 C

998.8 hpa

92 %

6.4 km/h aus 117

9.7 km/h aus ESE

5.0 C

5.1 C

5.0 C

6.3 C

0 W/m

0.00 mm

06:20

6.2 C

998.8 hpa

92 %

4.8 km/h aus 117

11.3 km/h aus E

5.0 C

5.6 C

5.6 C

6.3 C

0 W/m

0.00 mm

06:25

6.2 C

998.8 hpa

92 %

4.8 km/h aus 117

11.3 km/h aus E

5.0 C

5.5 C

5.5 C

6.2 C

0 W/m

0.00 mm

06:30

6.2 C

998.5 hpa

92 %

4.8 km/h aus 115

8.0 km/h aus E

5.0 C

5.5 C

5.5 C

6.2 C

0 W/m

0.00 mm

06:35

6.2 C

998.5 hpa

92 %

4.8 km/h aus 116

14.5 km/h aus E

5.0 C

5.6 C

5.6 C

6.3 C

0 W/m

0.00 mm

06:40

6.2 C

998.5 hpa

92 %

6.4 km/h aus 117

11.3 km/h aus E

5.0 C

5.1 C

5.0 C

6.3 C

0 W/m

0.00 mm

06:45

6.3 C

998.2 hpa

92 %

6.4 km/h aus 117

12.9 km/h aus ESE

5.1 C

5.1 C

5.1 C

6.3 C

0 W/m

0.00 mm

06:50

6.3 C

998.2 hpa

92 %

6.4 km/h aus 116

14.5 km/h aus E

5.1 C

5.1 C

5.1 C

6.3 C

0 W/m

0.25 mm

06:55

6.3 C

998.2 hpa

93 %

8.0 km/h aus 116

17.7 km/h aus ENE

5.3 C

4.8 C

4.7 C

6.4 C

0 W/m

0.00 mm

07:00

6.3 C

997.8 hpa

93 %

8.0 km/h aus 116

14.5 km/h aus E

5.3 C

4.8 C

4.7 C

6.4 C

0 W/m

0.00 mm

07:05

6.4 C

997.8 hpa

93 %

6.4 km/h aus 117

12.9 km/h aus ESE

5.3 C

5.2 C

5.2 C

6.4 C

0 W/m

0.00 mm

07:10

6.4 C

997.8 hpa

93 %

8.0 km/h aus 116

16.1 km/h aus ENE

5.4 C

4.9 C

4.8 C

6.5 C

0 W/m

0.25 mm

07:15

6.4 C

997.5 hpa

93 %

6.4 km/h aus 117

11.3 km/h aus ENE

5.4 C

5.3 C

5.3 C

6.5 C

0 W/m

0.00 mm

07:20

6.5 C

997.5 hpa

93 %

8.0 km/h aus 116

16.1 km/h aus E

5.4 C

4.9 C

4.9 C

6.6 C

0 W/m

0.00 mm

07:25

6.5 C

997.5 hpa

93 %

8.0 km/h aus 116

17.7 km/h aus E

5.4 C

4.9 C

4.9 C

6.6 C

0 W/m

0.00 mm

07:30

6.6 C

997.3 hpa

93 %

6.4 km/h aus 117

19.3 km/h aus ENE

5.5 C

5.4 C

5.4 C

6.6 C

0 W/m

0.25 mm

07:35

6.6 C

997.3 hpa

93 %

8.0 km/h aus 116

16.1 km/h aus NE

5.5 C

5.1 C

5.0 C

6.6 C

0 W/m

0.00 mm

07:40

6.6 C

997.3 hpa

93 %

6.4 km/h aus 117

11.3 km/h aus ENE

5.5 C

5.4 C

5.4 C

6.6 C

0 W/m

0.00 mm

07:45

6.6 C

997.2 hpa

93 %

11.3 km/h aus 117

22.5 km/h aus E

5.6 C

4.5 C

4.4 C

6.7 C

0 W/m

0.00 mm

07:50

6.7 C

997.2 hpa

93 %

8.0 km/h aus 117

16.1 km/h aus NE

5.6 C

5.2 C

5.1 C

6.8 C

0 W/m

0.25 mm

07:55

6.7 C

997.2 hpa

93 %

8.0 km/h aus 116

16.1 km/h aus ESE

5.7 C

5.3 C

5.2 C

6.8 C

0 W/m

0.00 mm

08:00

6.8 C

996.8 hpa

93 %

9.7 km/h aus 116

19.3 km/h aus ESE

5.7 C

4.9 C

4.8 C

6.9 C

0 W/m

0.00 mm

08:05

6.8 C

996.8 hpa

93 %

8.0 km/h aus 116

17.7 km/h aus E

5.7 C

5.3 C

5.2 C

6.9 C

0 W/m

0.00 mm

08:10

6.8 C

996.8 hpa

93 %

8.0 km/h aus 117

17.7 km/h aus ESE

5.7 C

5.3 C

5.2 C

6.9 C

0 W/m

0.00 mm

08:15

6.8 C

996.7 hpa

93 %

8.0 km/h aus 117

16.1 km/h aus ENE

5.7 C

5.3 C

5.2 C

6.9 C

0 W/m

0.00 mm

08:20

6.8 C

996.7 hpa

93 %

6.4 km/h aus 116

12.9 km/h aus NE

5.8 C

5.8 C

5.7 C

6.9 C

0 W/m

0.00 mm

08:25

6.8 C

996.7 hpa

93 %

6.4 km/h aus 116

11.3 km/h aus ENE

5.8 C

5.8 C

5.7 C

6.9 C

0 W/m

0.25 mm

08:30

6.8 C

996.4 hpa

93 %

11.3 km/h aus 118

25.7 km/h aus ESE

5.8 C

4.8 C

4.7 C

6.9 C

0 W/m

0.00 mm

08:35

6.9 C

996.4 hpa

93 %

9.7 km/h aus 116

17.7 km/h aus E

5.8 C

5.1 C

5.0 C

7.0 C

0 W/m

0.00 mm

08:40

6.9 C

996.4 hpa

93 %

12.9 km/h aus 117

25.7 km/h aus E

5.8 C

4.5 C

4.4 C

7.0 C

0 W/m

0.00 mm

08:45

6.9 C

996.2 hpa

94 %

12.9 km/h aus 116

27.4 km/h aus E

6.0 C

4.5 C

4.4 C

7.0 C

0 W/m

0.00 mm

08:50

6.9 C

996.2 hpa

94 %

9.7 km/h aus 115

19.3 km/h aus ESE

6.0 C

5.1 C

5.0 C

7.0 C

0 W/m

0.00 mm

08:55

6.9 C

996.2 hpa

94 %

14.5 km/h aus 117

27.4 km/h aus E

6.0 C

4.2 C

4.1 C

7.0 C

0 W/m

0.25 mm

09:00

6.9 C

995.7 hpa

94 %

14.5 km/h aus 117

25.7 km/h aus E

6.0 C

4.2 C

4.1 C

7.1 C

0 W/m

0.00 mm

09:05

6.9 C

995.7 hpa

94 %

11.3 km/h aus 117

25.7 km/h aus ENE

6.0 C

4.9 C

4.8 C

7.1 C

0 W/m

0.00 mm

09:10

6.9 C

995.7 hpa

94 %

9.7 km/h aus 115

24.1 km/h aus ESE

6.0 C

5.2 C

5.1 C

7.1 C

0 W/m

0.25 mm

09:15

6.9 C

995.7 hpa

94 %

11.3 km/h aus 117

20.9 km/h aus ESE

6.0 C

4.9 C

4.8 C

7.1 C

0 W/m

0.00 mm

09:20

7.0 C

995.7 hpa

94 %

12.9 km/h aus 117

20.9 km/h aus E

6.1 C

4.6 C

4.5 C

7.1 C

0 W/m

0.00 mm

09:25

7.1 C

995.7 hpa

94 %

9.7 km/h aus 116

19.3 km/h aus ENE

6.2 C

5.3 C

5.2 C

7.2 C

0 W/m

0.00 mm

09:30

7.1 C

995.7 hpa

94 %

6.4 km/h aus 116

14.5 km/h aus E

6.2 C

6.2 C

6.1 C

7.2 C

0 W/m

0.00 mm

09:35

7.2 C

995.7 hpa

94 %

9.7 km/h aus 117

20.9 km/h aus ENE

6.3 C

5.4 C

5.3 C

7.3 C

0 W/m

0.00 mm

09:40

7.2 C

995.7 hpa

94 %

9.7 km/h aus 117

17.7 km/h aus E

6.3 C

5.5 C

5.4 C

7.3 C

0 W/m

0.00 mm

09:45

7.2 C

995.7 hpa

94 %

3.2 km/h aus 116

9.7 km/h aus SSE

6.3 C

7.3 C

7.2 C

7.3 C

0 W/m

0.25 mm

09:50

7.3 C

995.7 hpa

94 %

6.4 km/h aus 117

11.3 km/h aus ESE

6.4 C

6.3 C

6.2 C

7.4 C

0 W/m

0.00 mm

09:55

7.3 C

995.7 hpa

94 %

6.4 km/h aus 116

11.3 km/h aus E

6.4 C

6.4 C

6.3 C

7.4 C

0 W/m

0.00 mm

10:00

7.4 C

995.3 hpa

94 %

6.4 km/h aus 117

11.3 km/h aus E

6.5 C

6.5 C

6.4 C

7.6 C

0 W/m

0.00 mm

10:05

7.5 C

995.3 hpa

94 %

1.6 km/h aus 117

8.0 km/h aus E

6.6 C

7.6 C

7.5 C

7.6 C

0 W/m

0.00 mm

10:10

7.7 C

995.3 hpa

94 %

4.8 km/h aus 116

11.3 km/h aus SSE

6.8 C

7.3 C

7.2 C

7.8 C

0 W/m

0.00 mm

10:15

7.8 C

995.2 hpa

94 %

6.4 km/h aus 117

9.7 km/h aus ESE

6.9 C

7.0 C

6.8 C

8.0 C

0 W/m

0.25 mm

10:20

7.9 C

995.2 hpa

95 %

3.2 km/h aus 117

8.0 km/h aus ESE

7.2 C

8.1 C

7.9 C

8.1 C

0 W/m

0.00 mm

10:25

8.0 C

995.2 hpa

95 %

4.8 km/h aus 117

11.3 km/h aus SE

7.2 C

7.7 C

7.6 C

8.2 C

0 W/m

0.00 mm

10:30

8.1 C

995.1 hpa

95 %

3.2 km/h aus 117

14.5 km/h aus SE

7.4 C

8.3 C

8.1 C

8.3 C

0 W/m

0.00 mm

10:35

8.1 C

995.1 hpa

95 %

8.0 km/h aus 117

14.5 km/h aus SE

7.4 C

6.9 C

6.8 C

8.3 C

0 W/m

0.00 mm

10:40

8.2 C

995.1 hpa

95 %

9.7 km/h aus 118

16.1 km/h aus SSE

7.4 C

6.7 C

6.5 C

8.3 C

0 W/m

0.00 mm

10:45

8.3 C

994.9 hpa

95 %

9.7 km/h aus 116

17.7 km/h aus SE

7.5 C

6.8 C

6.7 C

8.4 C

0 W/m

0.00 mm

10:50

8.3 C

994.9 hpa

95 %

9.7 km/h aus 116

19.3 km/h aus SE

7.6 C

6.9 C

6.7 C

8.5 C

0 W/m

0.00 mm

10:55

8.4 C

994.9 hpa

95 %

8.0 km/h aus 116

14.5 km/h aus SE

7.6 C

7.3 C

7.1 C

8.6 C

0 W/m

0.00 mm

11:00

8.4 C

994.8 hpa

95 %

9.7 km/h aus 117

17.7 km/h aus SSE

7.6 C

6.9 C

6.8 C

8.6 C

0 W/m

0.25 mm

11:05

8.4 C

994.8 hpa

95 %

9.7 km/h aus 116

17.7 km/h aus SSE

7.7 C

7.0 C

6.8 C

8.6 C

0 W/m

0.00 mm

11:10

8.6 C

994.8 hpa

95 %

9.7 km/h aus 117

16.1 km/h aus SSE

7.8 C

7.2 C

7.0 C

8.7 C

0 W/m

0.00 mm

11:15

8.7 C

994.7 hpa

95 %

9.7 km/h aus 116

16.1 km/h aus SE

7.9 C

7.3 C

7.1 C

8.9 C

0 W/m

0.00 mm

11:20

8.8 C

994.7 hpa

95 %

9.7 km/h aus 117

16.1 km/h aus ESE

8.1 C

7.6 C

7.3 C

9.1 C

0 W/m

0.00 mm

11:25

8.9 C

994.7 hpa

95 %

4.8 km/h aus 117

9.7 km/h aus SW

8.2 C

8.8 C

8.6 C

9.2 C

0 W/m

0.00 mm

11:30

9.1 C

994.9 hpa

95 %

11.3 km/h aus 117

17.7 km/h aus SSE

8.3 C

7.6 C

7.3 C

9.3 C

0 W/m

0.00 mm

11:35

9.2 C

994.9 hpa

95 %

12.9 km/h aus 116

19.3 km/h aus S

8.4 C

7.3 C

7.1 C

9.4 C

0 W/m

0.00 mm

11:40

9.6 C

994.9 hpa

95 %

11.3 km/h aus 118

24.1 km/h aus SSW

8.8 C

8.2 C

7.9 C

9.8 C

0 W/m

0.00 mm

11:45

9.9 C

994.8 hpa

95 %

16.1 km/h aus 117

22.5 km/h aus SSE

9.2 C

7.6 C

7.3 C

10.2 C

0 W/m

0.00 mm

11:50

10.1 C

994.8 hpa

95 %

16.1 km/h aus 115

20.9 km/h aus SSE

9.3 C

7.8 C

7.5 C

10.4 C

0 W/m

0.00 mm

11:55

10.2 C

994.8 hpa

95 %

14.5 km/h aus 116

20.9 km/h aus S

9.5 C

8.3 C

8.0 C

10.5 C

0 W/m

0.25 mm

12:00

10.2 C

994.9 hpa

95 %

14.5 km/h aus 117

20.9 km/h aus SSE

9.5 C

8.3 C

8.0 C

10.5 C

0 W/m

0.00 mm

12:05

10.1 C

994.9 hpa

95 %

16.1 km/h aus 115

20.9 km/h aus SSE

9.3 C

7.7 C

7.4 C

10.3 C

0 W/m

0.00 mm

12:10

10.2 C

994.9 hpa

95 %

16.1 km/h aus 117

22.5 km/h aus SSE

9.4 C

7.9 C

7.6 C

10.4 C

0 W/m

0.00 mm

12:15

10.3 C

994.8 hpa

95 %

14.5 km/h aus 117

19.3 km/h aus SSE

9.5 C

8.3 C

8.1 C

10.6 C

0 W/m

0.00 mm

12:20

10.4 C

994.8 hpa

95 %

17.7 km/h aus 117

25.7 km/h aus S

9.7 C

7.8 C

7.6 C

10.7 C

0 W/m

0.00 mm

12:25

10.7 C

994.8 hpa

95 %

17.7 km/h aus 117

24.1 km/h aus S

9.9 C

8.1 C

7.8 C

10.9 C

0 W/m

0.00 mm

12:30

10.8 C

994.9 hpa

95 %

16.1 km/h aus 117

24.1 km/h aus S

10.0 C

8.5 C

8.3 C

11.0 C

0 W/m

0.25 mm

12:35

11.0 C

994.9 hpa

95 %

16.1 km/h aus 117

24.1 km/h aus S

10.2 C

8.7 C

8.6 C

11.2 C

0 W/m

0.00 mm

12:40

11.4 C

994.9 hpa

95 %

16.1 km/h aus 116

25.7 km/h aus S

10.7 C

9.2 C

9.1 C

11.6 C

0 W/m

0.00 mm

12:45

11.9 C

994.7 hpa

95 %

19.3 km/h aus 117

24.1 km/h aus S

11.2 C

9.2 C

9.1 C

12.1 C

0 W/m

0.00 mm

12:50

12.2 C

994.7 hpa

95 %

16.1 km/h aus 117

27.4 km/h aus SSW

11.4 C

10.1 C

9.9 C

12.3 C

0 W/m

0.00 mm

12:55

12.3 C

994.7 hpa

95 %

14.5 km/h aus 116

20.9 km/h aus S

11.5 C

10.5 C

10.4 C

12.4 C

0 W/m

0.00 mm

13:00

12.3 C

994.7 hpa

94 %

16.1 km/h aus 117

27.4 km/h aus S

11.3 C

10.2 C

10.1 C

12.4 C

0 W/m

0.00 mm

13:05

12.4 C

994.7 hpa

93 %

14.5 km/h aus 117

25.7 km/h aus S

11.3 C

10.7 C

10.6 C

12.6 C

0 W/m

0.00 mm

13:10

12.7 C

994.7 hpa

93 %

14.5 km/h aus 117

27.4 km/h aus S

11.6 C

11.1 C

10.9 C

12.8 C

0 W/m

0.00 mm

13:15

13.0 C

994.7 hpa

91 %

19.3 km/h aus 116

30.6 km/h aus SSW

11.6 C

10.3 C

10.3 C

13.1 C

0 W/m

0.00 mm

13:20

13.2 C

994.7 hpa

90 %

14.5 km/h aus 117

24.1 km/h aus SSW

11.6 C

11.5 C

11.4 C

13.2 C

0 W/m

0.00 mm

13:25

13.1 C

994.7 hpa

88 %

14.5 km/h aus 117

24.1 km/h aus SSW

11.2 C

11.4 C

11.4 C

13.1 C

0 W/m

0.00 mm

13:30

13.1 C

994.7 hpa

87 %

14.5 km/h aus 117

22.5 km/h aus S

10.9 C

11.3 C

11.3 C

13.1 C

0 W/m

0.00 mm

13:35

13.0 C

994.7 hpa

87 %

17.7 km/h aus 116

33.8 km/h aus SSW

10.9 C

10.6 C

10.6 C

13.0 C

0 W/m

0.00 mm

13:40

12.8 C

994.7 hpa

87 %

19.3 km/h aus 117

30.6 km/h aus SSW

10.7 C

10.0 C

10.0 C

12.8 C

0 W/m

1.27 mm

13:45

12.3 C

995.2 hpa

88 %

14.5 km/h aus 117

27.4 km/h aus WSW

10.4 C

10.4 C

10.4 C

12.3 C

0 W/m

1.27 mm

13:50

12.1 C

995.2 hpa

89 %

12.9 km/h aus 118

22.5 km/h aus WSW

10.3 C

10.6 C

10.5 C

12.1 C

0 W/m

0.00 mm

13:55

11.9 C

995.2 hpa

90 %

14.5 km/h aus 117

24.1 km/h aus SW

10.4 C

10.1 C

10.0 C

12.0 C

0 W/m

0.00 mm

14:00

11.9 C

995.6 hpa

90 %

14.5 km/h aus 115

29.0 km/h aus WSW

10.3 C

10.0 C

9.9 C

11.9 C

0 W/m

0.00 mm

14:05

11.9 C

995.6 hpa

90 %

16.1 km/h aus 116

25.7 km/h aus SW

10.3 C

9.7 C

9.6 C

11.9 C

0 W/m

0.00 mm

14:10

11.9 C

995.6 hpa

90 %

14.5 km/h aus 116

22.5 km/h aus SW

10.3 C

10.0 C

9.9 C

11.9 C

0 W/m

0.00 mm

14:15

11.8 C

995.7 hpa

90 %

17.7 km/h aus 116

30.6 km/h aus SSW

10.2 C

9.3 C

9.2 C

11.9 C

0 W/m

0.00 mm

14:20

11.9 C

995.7 hpa

90 %

12.9 km/h aus 117

22.5 km/h aus WSW

10.4 C

10.4 C

10.4 C

12.0 C

0 W/m

0.00 mm

14:25

11.9 C

995.7 hpa

90 %

12.9 km/h aus 117

25.7 km/h aus SSW

10.4 C

10.4 C

10.4 C

12.0 C

0 W/m

0.00 mm

14:30

12.1 C

995.7 hpa

90 %

12.9 km/h aus 117

25.7 km/h aus SSW

10.5 C

10.6 C

10.5 C

12.1 C

0 W/m

0.00 mm

14:35

12.2 C

995.7 hpa

89 %

16.1 km/h aus 117

29.0 km/h aus SW

10.5 C

10.1 C

10.0 C

12.3 C

0 W/m

0.00 mm

14:40

12.4 C

995.7 hpa

88 %

11.3 km/h aus 117

20.9 km/h aus SSW

10.5 C

11.3 C

11.3 C

12.4 C

0 W/m

0.00 mm

14:45

12.6 C

995.7 hpa

88 %

11.3 km/h aus 117

20.9 km/h aus SSW

10.6 C

11.5 C

11.5 C

12.6 C

0 W/m

0.00 mm

14:50

12.6 C

995.7 hpa

86 %

12.9 km/h aus 117

24.1 km/h aus WSW

10.3 C

11.1 C

11.2 C

12.6 C

0 W/m

0.00 mm

14:55

12.7 C

995.7 hpa

85 %

16.1 km/h aus 117

29.0 km/h aus SSW

10.2 C

10.4 C

10.5 C

12.6 C

0 W/m

0.00 mm

15:00

12.8 C

995.6 hpa

85 %

12.9 km/h aus 116

24.1 km/h aus SSW

10.4 C

11.4 C

11.4 C

12.8 C

0 W/m

0.00 mm

15:05

13.1 C

995.6 hpa

84 %

12.9 km/h aus 116

24.1 km/h aus WSW

10.4 C

11.7 C

11.7 C

13.0 C

0 W/m

0.00 mm

15:10

13.2 C

995.6 hpa

83 %

17.7 km/h aus 117

29.0 km/h aus SW

10.3 C

10.7 C

10.8 C

13.1 C

0 W/m

0.00 mm

15:15

13.2 C

995.4 hpa

82 %

16.1 km/h aus 117

27.4 km/h aus SW

10.2 C

10.9 C

11.1 C

13.1 C

0 W/m

0.00 mm

15:20

13.2 C

995.4 hpa

81 %

14.5 km/h aus 117

35.4 km/h aus SSW

10.0 C

11.3 C

11.4 C

13.0 C

0 W/m

0.00 mm

15:25

13.2 C

995.4 hpa

81 %

16.1 km/h aus 117

32.2 km/h aus SSW

10.0 C

10.9 C

11.1 C

13.0 C

0 W/m

0.00 mm

15:30

13.3 C

995.4 hpa

81 %

12.9 km/h aus 117

25.7 km/h aus WSW

10.1 C

11.8 C

12.0 C

13.1 C

0 W/m

0.00 mm

15:35

13.2 C

995.4 hpa

81 %

14.5 km/h aus 117

32.2 km/h aus SW

10.0 C

11.4 C

11.6 C

13.1 C

0 W/m

0.00 mm

15:40

13.3 C

995.4 hpa

80 %

16.1 km/h aus 117

30.6 km/h aus SSW

9.9 C

11.1 C

11.2 C

13.1 C

0 W/m

0.00 mm

15:45

13.2 C

995.3 hpa

79 %

16.1 km/h aus 116

30.6 km/h aus SSW

9.7 C

10.9 C

11.2 C

13.0 C

0 W/m

0.00 mm

15:50

13.2 C

995.3 hpa

79 %

16.1 km/h aus 116

27.4 km/h aus SSW

9.6 C

10.8 C

11.1 C

12.9 C

0 W/m

0.00 mm

15:55

13.1 C

995.3 hpa

80 %

11.3 km/h aus 117

19.3 km/h aus W

9.7 C

12.0 C

12.2 C

12.9 C

0 W/m

0.00 mm

16:00

13.1 C

995.8 hpa

81 %

17.7 km/h aus 116

41.8 km/h aus SW

9.9 C

10.5 C

10.7 C

12.9 C

0 W/m

0.25 mm

16:05

12.6 C

995.8 hpa

80 %

25.7 km/h aus 116

49.9 km/h aus WSW

9.2 C

8.8 C

9.0 C

12.4 C

0 W/m

0.00 mm

16:10

12.4 C

995.8 hpa

82 %

20.9 km/h aus 116

35.4 km/h aus WSW

9.4 C

9.2 C

9.3 C

12.3 C

0 W/m

0.00 mm

16:15

12.2 C

996.2 hpa

84 %

17.7 km/h aus 117

29.0 km/h aus WSW

9.5 C

9.6 C

9.6 C

12.1 C

0 W/m

0.00 mm

16:20

11.9 C

996.2 hpa

85 %

16.1 km/h aus 117

27.4 km/h aus WSW

9.4 C

9.6 C

9.6 C

11.8 C

0 W/m

0.00 mm

16:25

11.6 C

996.2 hpa

85 %

17.7 km/h aus 116

29.0 km/h aus SW

9.1 C

8.8 C

8.9 C

11.5 C

0 W/m

0.00 mm

16:30

11.4 C

996.2 hpa

85 %

16.1 km/h aus 117

29.0 km/h aus S

9.0 C

9.0 C

9.0 C

11.4 C

0 W/m

0.00 mm

16:35

11.3 C

996.2 hpa

85 %

14.5 km/h aus 115

27.4 km/h aus SSW

8.9 C

9.3 C

9.3 C

11.3 C

0 W/m

0.00 mm

16:40

11.3 C

996.2 hpa

85 %

16.1 km/h aus 117

27.4 km/h aus SW

8.9 C

8.9 C

8.9 C

11.3 C

0 W/m

0.00 mm

16:45

11.4 C

996.0 hpa

86 %

11.3 km/h aus 117

20.9 km/h aus SSW

9.1 C

10.1 C

10.1 C

11.4 C

0 W/m

0.00 mm

16:50

11.4 C

996.0 hpa

86 %

11.3 km/h aus 116

22.5 km/h aus WSW

9.1 C

10.1 C

10.1 C

11.4 C

0 W/m

0.00 mm

16:55

11.4 C

996.0 hpa

86 %

16.1 km/h aus 118

30.6 km/h aus SSW

9.2 C

9.1 C

9.1 C

11.4 C

0 W/m

0.00 mm

17:00

11.6 C

995.8 hpa

86 %

11.3 km/h aus 117

22.5 km/h aus SSW

9.3 C

10.3 C

10.3 C

11.6 C

0 W/m

0.00 mm

17:05

11.6 C

995.8 hpa

86 %

9.7 km/h aus 117

17.7 km/h aus SSW

9.3 C

10.6 C

10.6 C

11.6 C

0 W/m

0.00 mm

17:10

11.7 C

995.8 hpa

86 %

11.3 km/h aus 117

19.3 km/h aus SSW

9.4 C

10.4 C

10.4 C

11.6 C

0 W/m

0.00 mm

17:15

11.6 C

995.7 hpa

85 %

11.3 km/h aus 117

24.1 km/h aus WSW

9.2 C

10.3 C

10.4 C

11.6 C

0 W/m

0.00 mm

17:20

11.6 C

995.7 hpa

85 %

14.5 km/h aus 117

24.1 km/h aus SW

9.2 C

9.6 C

9.6 C

11.6 C

0 W/m

0.00 mm

17:25

11.7 C

995.7 hpa

85 %

12.9 km/h aus 116

22.5 km/h aus SSW

9.2 C

10.0 C

10.1 C

11.6 C

0 W/m

0.00 mm

17:30

11.8 C

995.7 hpa

85 %

9.7 km/h aus 117

20.9 km/h aus SW

9.3 C

10.7 C

10.8 C

11.7 C

0 W/m

0.00 mm

17:35

11.8 C

995.7 hpa

85 %

16.1 km/h aus 116

25.7 km/h aus WSW

9.3 C

9.4 C

9.4 C

11.7 C

0 W/m

0.00 mm

17:40

11.7 C

995.7 hpa

85 %

9.7 km/h aus 117

17.7 km/h aus SW

9.3 C

10.7 C

10.7 C

11.7 C

0 W/m

0.00 mm

17:45

11.7 C

995.7 hpa

84 %

12.9 km/h aus 117

25.7 km/h aus SSW

9.1 C

10.0 C

10.1 C

11.6 C

0 W/m

0.00 mm

17:50

11.7 C

995.7 hpa

84 %

9.7 km/h aus 116

19.3 km/h aus WSW

9.1 C

10.6 C

10.7 C

11.6 C

0 W/m

0.00 mm

17:55

11.6 C

995.7 hpa

84 %

12.9 km/h aus 116

24.1 km/h aus SSW

9.0 C

9.9 C

10.0 C

11.6 C

0 W/m

0.00 mm

18:00

11.6 C

996.1 hpa

84 %

12.9 km/h aus 118

25.7 km/h aus WSW

8.9 C

9.9 C

9.9 C

11.5 C

0 W/m

0.00 mm

18:05

11.5 C

996.1 hpa

84 %

11.3 km/h aus 117

22.5 km/h aus SSW

8.9 C

10.2 C

10.2 C

11.4 C

0 W/m

0.00 mm

18:10

11.4 C

996.1 hpa

84 %

12.9 km/h aus 116

24.1 km/h aus SSW

8.8 C

9.7 C

9.8 C

11.4 C

0 W/m

0.00 mm

18:15

11.5 C

995.7 hpa

84 %

12.9 km/h aus 117

25.7 km/h aus WSW

8.9 C

9.8 C

9.8 C

11.4 C

0 W/m

0.00 mm

18:20

11.6 C

995.7 hpa

83 %

12.9 km/h aus 117

22.5 km/h aus SW

8.8 C

9.8 C

9.9 C

11.4 C

0 W/m

0.00 mm

18:25

11.6 C

995.7 hpa

83 %

11.3 km/h aus 117

17.7 km/h aus SSW

8.8 C

10.2 C

10.3 C

11.4 C

0 W/m

0.00 mm

18:30

11.6 C

995.9 hpa

83 %

9.7 km/h aus 116

22.5 km/h aus S

8.8 C

10.5 C

10.6 C

11.5 C

0 W/m

0.00 mm

18:35

11.6 C

995.9 hpa

82 %

11.3 km/h aus 116

24.1 km/h aus SW

8.6 C

10.3 C

10.4 C

11.5 C

0 W/m

0.00 mm

18:40

11.7 C

995.9 hpa

82 %

12.9 km/h aus 117

24.1 km/h aus WSW

8.7 C

9.9 C

10.1 C

11.6 C

0 W/m

0.00 mm

18:45

11.7 C

996.0 hpa

81 %

9.7 km/h aus 117

17.7 km/h aus WSW

8.5 C

10.5 C

10.7 C

11.5 C

0 W/m

0.00 mm

18:50

11.7 C

996.0 hpa

81 %

8.0 km/h aus 117

16.1 km/h aus SW

8.5 C

10.8 C

10.9 C

11.5 C

0 W/m

0.00 mm

18:55

11.6 C

996.0 hpa

81 %

9.7 km/h aus 116

24.1 km/h aus SSW

8.5 C

10.5 C

10.6 C

11.5 C

0 W/m

0.00 mm

19:00

11.6 C

995.7 hpa

80 %

9.7 km/h aus 117

17.7 km/h aus SSW

8.2 C

10.4 C

10.6 C

11.4 C

0 W/m

0.00 mm

19:05

11.6 C

995.7 hpa

80 %

9.7 km/h aus 118

16.1 km/h aus SW

8.3 C

10.4 C

10.6 C

11.4 C

0 W/m

0.00 mm

19:10

11.6 C

995.7 hpa

80 %

9.7 km/h aus 117

17.7 km/h aus SSW

8.2 C

10.4 C

10.6 C

11.4 C

0 W/m

0.00 mm

19:15

11.6 C

996.0 hpa

80 %

4.8 km/h aus 117

11.3 km/h aus WSW

8.2 C

11.4 C

11.6 C

11.4 C

0 W/m

0.00 mm

19:20

11.5 C

996.0 hpa

80 %

8.0 km/h aus 116

17.7 km/h aus SSW

8.2 C

10.6 C

10.8 C

11.3 C

0 W/m

0.00 mm

19:25

11.5 C

996.0 hpa

80 %

9.7 km/h aus 117

19.3 km/h aus SSW

8.2 C

10.3 C

10.4 C

11.3 C

0 W/m

0.00 mm

19:30

11.5 C

996.2 hpa

80 %

8.0 km/h aus 117

17.7 km/h aus SW

8.2 C

10.6 C

10.8 C

11.3 C

0 W/m

0.00 mm

19:35

11.4 C

996.2 hpa

80 %

4.8 km/h aus 117

9.7 km/h aus SW

8.1 C

11.3 C

11.4 C

11.3 C

0 W/m

0.00 mm

19:40

11.4 C

996.2 hpa

80 %

1.6 km/h aus 115

6.4 km/h aus SW

8.1 C

11.3 C

11.4 C

11.3 C

0 W/m

0.00 mm

19:45

11.3 C

996.1 hpa

81 %

4.8 km/h aus 116

9.7 km/h aus SW

8.2 C

11.2 C

11.3 C

11.2 C

0 W/m

0.00 mm

19:50

11.3 C

996.1 hpa

81 %

3.2 km/h aus 117

6.4 km/h aus SW

8.2 C

11.2 C

11.3 C

11.2 C

0 W/m

0.00 mm

19:55

11.3 C

996.1 hpa

81 %

3.2 km/h aus 115

6.4 km/h aus SW

8.1 C

11.2 C

11.3 C

11.2 C

0 W/m

0.00 mm

20:00

11.3 C

996.1 hpa

81 %

3.2 km/h aus 116

6.4 km/h aus SW

8.1 C

11.2 C

11.3 C

11.2 C

0 W/m

0.00 mm

20:05

11.1 C

996.1 hpa

82 %

3.2 km/h aus 117

8.0 km/h aus SW

8.2 C

11.1 C

11.1 C

11.1 C

0 W/m

0.00 mm

20:10

11.0 C

996.1 hpa

83 %

3.2 km/h aus 117

6.4 km/h aus SW

8.2 C

10.9 C

11.0 C

10.9 C

0 W/m

0.00 mm

20:15

10.8 C

995.9 hpa

83 %

3.2 km/h aus 116

8.0 km/h aus SW

8.1 C

10.8 C

10.8 C

10.8 C

0 W/m

0.00 mm

20:20

10.6 C

995.9 hpa

84 %

3.2 km/h aus 116

6.4 km/h aus SW

8.0 C

10.6 C

10.6 C

10.6 C

0 W/m

0.00 mm

20:25

10.4 C

995.9 hpa

85 %

4.8 km/h aus 116

6.4 km/h aus SW

8.0 C

10.3 C

10.3 C

10.4 C

0 W/m

0.00 mm

20:30

10.3 C

996.2 hpa

86 %

3.2 km/h aus 117

4.8 km/h aus SW

8.0 C

10.3 C

10.3 C

10.3 C

0 W/m

0.00 mm

20:35

10.2 C

996.2 hpa

87 %

1.6 km/h aus 116

4.8 km/h aus SW

8.1 C

10.2 C

10.2 C

10.2 C

0 W/m

0.00 mm

20:40

10.1 C

996.2 hpa

87 %

1.6 km/h aus 116

3.2 km/h aus SW

8.0 C

10.2 C

10.1 C

10.2 C

0 W/m

0.00 mm

20:45

9.9 C

996.2 hpa

88 %

1.6 km/h aus 117

3.2 km/h aus SW

8.0 C

10.1 C

9.9 C

10.1 C

0 W/m

0.00 mm

20:50

9.8 C

996.2 hpa

88 %

1.6 km/h aus 117

3.2 km/h aus SW

7.9 C

9.9 C

9.8 C

9.9 C

0 W/m

0.00 mm

20:55

9.7 C

996.2 hpa

88 %

1.6 km/h aus 116

3.2 km/h aus SW

7.8 C

9.8 C

9.7 C

9.8 C

0 W/m

0.00 mm

21:00

9.7 C

996.1 hpa

88 %

0.0 km/h aus 117

3.2 km/h aus SW

7.8 C

9.8 C

9.7 C

9.8 C

0 W/m

0.00 mm

21:05

9.7 C

996.1 hpa

88 %

0.0 km/h aus 115

4.8 km/h aus SW

7.8 C

9.8 C

9.7 C

9.8 C

0 W/m

0.00 mm

21:10

9.6 C

996.1 hpa

89 %

1.6 km/h aus 117

4.8 km/h aus SW

7.9 C

9.8 C

9.6 C

9.8 C

0 W/m

0.00 mm

21:15

9.6 C

995.9 hpa

89 %

1.6 km/h aus 116

4.8 km/h aus SW

7.8 C

9.7 C

9.6 C

9.7 C

0 W/m

0.00 mm

21:20

9.4 C

995.9 hpa

89 %

1.6 km/h aus 116

4.8 km/h aus SW

7.7 C

9.6 C

9.4 C

9.6 C

0 W/m

0.00 mm

21:25

9.2 C

995.9 hpa

89 %

0.0 km/h aus 117

3.2 km/h aus SW

7.5 C

9.3 C

9.2 C

9.3 C

0 W/m

0.00 mm

21:30

9.1 C

996.0 hpa

89 %

1.6 km/h aus 117

4.8 km/h aus SW

7.4 C

9.2 C

9.1 C

9.2 C

0 W/m

0.00 mm

21:35

9.1 C

996.0 hpa

90 %

1.6 km/h aus 116

3.2 km/h aus SW

7.6 C

9.2 C

9.1 C

9.2 C

0 W/m

0.00 mm

21:40

9.1 C

996.0 hpa

90 %

3.2 km/h aus 117

6.4 km/h aus SW

7.5 C

9.2 C

9.1 C

9.2 C

0 W/m

0.00 mm

21:45

9.1 C

995.9 hpa

90 %

3.2 km/h aus 117

4.8 km/h aus SW

7.5 C

9.2 C

9.1 C

9.2 C

0 W/m

0.00 mm

21:50

9.1 C

995.9 hpa

90 %

3.2 km/h aus 117

4.8 km/h aus SW

7.5 C

9.2 C

9.1 C

9.2 C

0 W/m

0.00 mm

21:55

9.2 C

995.9 hpa

91 %

1.6 km/h aus 116

6.4 km/h aus SW

7.8 C

9.3 C

9.2 C

9.3 C

0 W/m

0.00 mm

22:00

9.2 C

995.8 hpa

91 %

0.0 km/h aus 117

3.2 km/h aus SW

7.8 C

9.3 C

9.2 C

9.3 C

0 W/m

0.00 mm

22:05

9.2 C

995.8 hpa

91 %

0.0 km/h aus 116

3.2 km/h aus SW

7.8 C

9.3 C

9.2 C

9.3 C

0 W/m

0.00 mm

22:10

9.2 C

995.8 hpa

91 %

0.0 km/h aus 116

0.0 km/h aus ---

7.8 C

9.3 C

9.2 C

9.3 C

0 W/m

0.00 mm

22:15

9.2 C

995.9 hpa

91 %

0.0 km/h aus 116

0.0 km/h aus ---

7.8 C

9.3 C

9.2 C

9.3 C

0 W/m

0.00 mm

22:20

9.2 C

995.9 hpa

91 %

0.0 km/h aus 116

1.6 km/h aus SW

7.8 C

9.3 C

9.2 C

9.3 C

0 W/m

0.00 mm

22:25

9.1 C

995.9 hpa

91 %

0.0 km/h aus 117

1.6 km/h aus SW

7.7 C

9.2 C

9.1 C

9.2 C

0 W/m

0.00 mm

22:30

9.1 C

995.9 hpa

90 %

0.0 km/h aus 117

3.2 km/h aus SW

7.5 C

9.2 C

9.1 C

9.2 C

0 W/m

0.00 mm

22:35

8.9 C

995.9 hpa

90 %

0.0 km/h aus 117

4.8 km/h aus SW

7.4 C

9.1 C

8.9 C

9.1 C

0 W/m

0.00 mm

22:40

8.9 C

995.9 hpa

91 %

4.8 km/h aus 115

9.7 km/h aus SW

7.6 C

8.7 C

8.6 C

9.1 C

0 W/m

0.00 mm

22:45

9.0 C

995.9 hpa

91 %

6.4 km/h aus 116

9.7 km/h aus SSW

7.6 C

8.4 C

8.2 C

9.2 C

0 W/m

0.00 mm

22:50

9.2 C

995.9 hpa

91 %

6.4 km/h aus 116

8.0 km/h aus S

7.8 C

8.6 C

8.4 C

9.3 C

0 W/m

0.00 mm

22:55

9.3 C

995.9 hpa

91 %

6.4 km/h aus 116

9.7 km/h aus S

7.9 C

8.7 C

8.6 C

9.4 C

0 W/m

0.00 mm

23:00

9.4 C

995.7 hpa

90 %

4.8 km/h aus 115

8.0 km/h aus S

7.8 C

9.3 C

9.1 C

9.6 C

0 W/m

0.00 mm

23:05

9.4 C

995.7 hpa

90 %

4.8 km/h aus 116

6.4 km/h aus S

7.8 C

9.3 C

9.1 C

9.6 C

0 W/m

0.00 mm

23:10

9.3 C

995.7 hpa

90 %

6.4 km/h aus 117

9.7 km/h aus S

7.7 C

8.7 C

8.6 C

9.4 C

0 W/m

0.00 mm

23:15

9.3 C

995.7 hpa

90 %

6.4 km/h aus 118

8.0 km/h aus S

7.7 C

8.7 C

8.6 C

9.4 C

0 W/m

0.00 mm

23:20

9.2 C

995.7 hpa

90 %

6.4 km/h aus 117

8.0 km/h aus S

7.7 C

8.7 C

8.5 C

9.4 C

0 W/m

0.00 mm

23:25

9.2 C

995.7 hpa

90 %

6.4 km/h aus 117

9.7 km/h aus S

7.6 C

8.6 C

8.4 C

9.3 C

0 W/m

0.00 mm

23:30

9.2 C

995.7 hpa

90 %

6.4 km/h aus 117

8.0 km/h aus S

7.6 C

8.6 C

8.4 C

9.3 C

0 W/m

0.00 mm

23:35

9.2 C

995.7 hpa

90 %

9.7 km/h aus 117

17.7 km/h aus S

7.7 C

7.9 C

7.8 C

9.4 C

0 W/m

0.00 mm

23:40

9.3 C

995.7 hpa

89 %

9.7 km/h aus 115

14.5 km/h aus S

7.6 C

7.9 C

7.8 C

9.4 C

0 W/m

0.00 mm

23:45

9.3 C

995.7 hpa

89 %

11.3 km/h aus 116

17.7 km/h aus S

7.6 C

7.8 C

7.7 C

9.4 C

0 W/m

0.00 mm

23:50

9.4 C

995.7 hpa

88 %

11.3 km/h aus 116

16.1 km/h aus S

7.5 C

7.8 C

7.7 C

9.5 C

0 W/m

0.00 mm

23:55

9.4 C

995.7 hpa

88 %

11.3 km/h aus 117

17.7 km/h aus S

7.6 C

7.9 C

7.8 C

9.6 C

0 W/m

0.00 mm